STARLINK-38024

Last updated on Sun Aug 09 2026 00:02:04 GMT+0000 (Coordinated Universal Time)

1 69975U 26159A 26220.52782471 .00140064 00000+0 92397-3 0 9994 2 69975 97.2841 60.5534 0001564 65.1436 294.9992 15.75205675 5702
UTC large
Height (km)
Speed (km/s)
/
Latitude / Longitude
Inclination (degrees)
Orbital Period (minutes)
Azimuth
Elevation
Range (km)
Doppler Factor

Next 0 passes for location: London (51.5072 / 0.1276)

No passes found over London.
STARLINK-38024